{"data":{"norad_id":29055,"epoch":"2026-05-25T03:50:01.744224Z","epoch_age_seconds":61174,"freshness":"FRESH","line1":"1 29055U 06012A   26145.15974241  .00000117  00000+0  00000+0 0  9998","line2":"2 29055   0.4163  83.1112 0003474 339.1921 256.9543  1.00273701 45463","mean_motion":1.00273701,"eccentricity":0.0003474,"inclination_deg":0.4163,"raan_deg":83.1112,"arg_perigee_deg":339.1921,"mean_anomaly_deg":256.9543,"bstar":0,"rev_number":4546,"period_min":1436.0694635177,"perigee_km":35771.410004101,"apogee_km":35800.70568668,"semimajor_km":42164.194845391,"source":"CELESTRAK","updated_at":"2026-05-25T13:38:14.474075Z"}}